Regional Weather Roundup
Issued by NWS

Home | Current Version | Previous Version | Graphics & Text | Print | Product List | Glossary On
Versions: 1 2 3 4 5 6 7 8 9 10 11 12 13 14 15 16 17 18 19 20 21 22 23 24 25 26 27 28 29 30 31 32 33 34 35 36 37 38 39 40 41 42 43 44 45 46 47 48 49 50
000
ASUS43 KOAX 011902
RWRNE

WEATHER ROUNDUP FOR NEBRASKA
NATIONAL WEATHER SERVICE OMAHA NE
200 PM CDT TUE SEP 01 2015

NOTES: SATELLITE DATA IS BEING USED TO AUGMENT CLOUD COVER ABOVE
       12000 FEET.
       "FAIR" INDICATES FEW OR NO CLOUDS BELOW 12,000 FEET WITH NO
       SIGNIFICANT WEATHER AND/OR OBSTRUCTIONS TO VISIBILITY.

  * THESE STATIONS DO NOT REPORT WEATHER SUCH AS RAIN...SNOW OR FOG.

NEZ001>004-019>022-054>056-012000-
NEBRASKA PANHANDLE

CITY           SKY/WX    TMP DP  RH WIND       PRES   REMARKS
SCOTTSBLUFF    SUNNY     89  50  26 VRB3      29.95F
ALLIANCE       SUNNY     90  42  18 SW10      29.94F
CHADRON        SUNNY     91  46  21 SW9       29.88F
KIMBALL        MOSUNNY   87  39  18 W3        30.02F
SIDNEY         SUNNY     90  41  18 MISG      30.00F
$$

NEZ057>060-069>072-079>082-012000-
SOUTHWEST NEBRASKA

CITY           SKY/WX    TMP DP  RH WIND       PRES   REMARKS
NORTH PLATTE   MOSUNNY   87  58  37 W7        29.91F
IMPERIAL       SUNNY     88  53  30 W7        29.96F
LEXINGTON      SUNNY     87  61  40 SW5       29.92S
MC COOK        SUNNY     89  60  37 SW6       29.92F
OGALLALA       SUNNY     87  54  32 S9        29.94F
$$

NEZ005>010-023>029-035>040-094-012000-
NORTH CENTRAL NEBRASKA

CITY           SKY/WX    TMP DP  RH WIND       PRES   REMARKS
VALENTINE      MOSUNNY   89  56  32 SE15G23   29.87F
AINSWORTH      PTSUNNY   83  65  55 S12       29.91F
BROKEN BOW     SUNNY     89  61  38 NE7       29.91F
O`NEILL        PTSUNNY   79  70  73 E3        29.90F
ORD            MOSUNNY   89  62  40 E3        29.88F
THEDFORD       MOSUNNY   88  59  37 S10       29.92F
$$

NEZ041-046>049-061>064-073>077-083>087-012000-
SOUTH CENTRAL NEBRASKA

CITY           SKY/WX    TMP DP  RH WIND       PRES   REMARKS
GRAND ISLAND   MOSUNNY   87  62  43 S16       29.92F
AURORA         SUNNY     88  65  45 S10G18    29.92S
HASTINGS       SUNNY     87  65  47 SW7       29.92F
HEBRON         MOSUNNY   90  60  36 S13G24    29.92F
HOLDREGE       MOSUNNY   85  59  41 S6        29.93S
KEARNEY *      MOSUNNY   84  63  48 S13       29.92F
YORK           MOSUNNY   86  68  54 S12G17    29.92F
$$

NEZ011>018-030>034-042>045-012000-
NORTHEAST NEBRASKA

CITY           SKY/WX    TMP DP  RH WIND       PRES   REMARKS
NORFOLK        PTSUNNY   85  68  56 S12       29.89F
ALBION         MOSUNNY   83  65  54 S13G18    29.90S
BLAIR          FAIR      85  69  59 S12       29.93F
COLUMBUS *     PTSUNNY   86  68  54 S10G16    29.90F
FREMONT        MOSUNNY   87  69  53 S10       29.92S HX  91
TEKAMAH        PTSUNNY   86  71  60 S8        29.91F HX  91
$$

NEZ050>053-065>068-078-088>093-012000-
SOUTHEAST NEBRASKA

CITY           SKY/WX    TMP DP  RH WIND       PRES   REMARKS
LINCOLN        SUNNY     91  68  46 S17       29.92F HX  95
OMAHA EPPLEY   MOSUNNY   88  70  55 S13       29.93S HX  93
BEATRICE       MOSUNNY   88  67  50 S15       29.94F HX  91
FALLS CITY     MOSUNNY   91  68  46 S15       29.96S HX  95
NEBRASKA CITY  PTSUNNY   88  63  42 S10       29.95F
PLATTSMOUTH    MOSUNNY   85  69  57 S10       29.95F
$$

NEZ044-045-051>053-067-012000-
OMAHA AREA

CITY           SKY/WX    TMP DP  RH WIND       PRES   REMARKS
EPPLEY FIELD   MOSUNNY   88  70  55 S13       29.93S HX  93
BLAIR          MOSUNNY   85  69  59 S12       29.93F
FREMONT        MOSUNNY   87  69  53 S10       29.92S HX  91
MILLARD        MOSUNNY   87  71  58 S10       29.93F HX  92
OFFUTT AFB     MOSUNNY   88  70  55 S10       29.93S HX  92
PLATTSMOUTH    MOSUNNY   85  69  57 S10       29.95F
WAHOO          FAIR      88  70  56 S10       29.92S HX  93
$$



USA.gov is the U.S. government's official web portal to all federal, state and local government web resources and services.